Time,TemperatureF,DewpointF,PressureIn,WindDirection,WindDirectionDegrees,WindSpeedMPH,WindSpeedGustMPH,Humidity,HourlyPrecipIn,Conditions,Clouds,dailyrainin,SoftwareType,DateUTC
2013-05-12 00:01:00,73.5,67.3,30.03,NNE,24,8.0,9.0,81,0.00,,---,0.00,VWS V14.00,2013-05-12 05:01:00,
2013-05-12 00:06:00,73.8,66.9,30.04,NE,35,6.0,7.0,79,0.00,,---,0.00,VWS V14.00,2013-05-12 05:06:00,
2013-05-12 00:11:00,73.8,66.2,30.04,NNE,31,7.0,8.0,77,0.00,,---,0.00,VWS V14.00,2013-05-12 05:11:00,
2013-05-12 00:16:00,73.9,65.5,30.04,NNE,22,12.0,12.0,75,0.00,,---,0.00,VWS V14.00,2013-05-12 05:16:00,
2013-05-12 00:21:00,74.0,64.8,30.03,NE,40,10.0,12.0,73,0.00,,---,0.00,VWS V14.00,2013-05-12 05:21:00,
2013-05-12 00:26:00,74.0,64.4,30.03,NE,45,10.0,13.0,72,0.00,,---,0.00,VWS V14.00,2013-05-12 05:26:00,
2013-05-12 00:31:00,73.8,63.8,30.02,NNE,23,11.0,11.0,71,0.00,,---,0.00,VWS V14.00,2013-05-12 05:31:00,
2013-05-12 00:36:00,73.5,63.1,30.02,NE,46,13.0,16.0,70,0.00,,---,0.00,VWS V14.00,2013-05-12 05:36:00,
2013-05-12 00:41:00,73.4,63.0,30.02,NE,36,13.0,14.0,70,0.00,,---,0.00,VWS V14.00,2013-05-12 05:41:00,
2013-05-12 00:46:00,72.7,62.8,30.02,NE,44,14.0,18.0,71,0.00,,---,0.00,VWS V14.00,2013-05-12 05:46:00,
2013-05-12 00:51:00,71.8,63.1,30.02,NNE,24,9.0,13.0,74,0.01,,---,0.01,VWS V14.00,2013-05-12 05:51:00,
2013-05-12 00:56:00,70.8,62.9,30.03,NE,34,10.0,14.0,76,0.02,,---,0.02,VWS V14.00,2013-05-12 05:56:00,
2013-05-12 01:01:00,70.4,62.8,30.03,NE,45,8.0,10.0,77,0.02,,---,0.02,VWS V14.00,2013-05-12 06:01:00,
2013-05-12 01:06:00,70.1,62.6,30.04,NE,56,6.0,10.0,77,0.02,,---,0.02,VWS V14.00,2013-05-12 06:06:00,
2013-05-12 01:11:00,70.1,62.9,30.04,NE,34,9.0,10.0,78,0.02,,---,0.02,VWS V14.00,2013-05-12 06:11:00,
2013-05-12 01:16:00,70.2,63.0,30.05,NE,47,4.0,5.0,78,0.02,,---,0.02,VWS V14.00,2013-05-12 06:16:00,
2013-05-12 01:21:00,70.0,62.8,30.05,NNE,31,4.0,4.0,78,0.02,,---,0.02,VWS V14.00,2013-05-12 06:21:00,
2013-05-12 01:26:00,69.9,62.7,30.05,NNE,28,3.0,3.0,78,0.02,,---,0.02,VWS V14.00,2013-05-12 06:26:00,
2013-05-12 01:31:00,69.9,63.1,30.05,NNE,29,3.0,3.0,79,0.02,,---,0.02,VWS V14.00,2013-05-12 06:31:00,
2013-05-12 01:36:00,69.7,62.9,30.05,NNE,29,2.0,3.0,79,0.02,,---,0.02,VWS V14.00,2013-05-12 06:36:00,
2013-05-12 01:41:00,69.6,63.2,30.05,NNE,29,0.0,0.0,80,0.02,,---,0.02,VWS V14.00,2013-05-12 06:41:00,
2013-05-12 01:46:00,69.4,63.0,30.05,NNE,29,0.0,0.0,80,0.03,,---,0.03,VWS V14.00,2013-05-12 06:46:00,
2013-05-12 01:51:00,69.2,63.1,30.04,NNE,29,0.0,0.0,81,0.02,,---,0.03,VWS V14.00,2013-05-12 06:51:00,
2013-05-12 01:56:00,69.0,62.9,30.05,NNE,29,0.0,0.0,81,0.01,,---,0.03,VWS V14.00,2013-05-12 06:56:00,
2013-05-12 02:01:00,68.6,62.5,30.05,NNE,29,0.0,0.0,81,0.01,,---,0.03,VWS V14.00,2013-05-12 07:01:00,
2013-05-12 02:06:00,68.2,62.5,30.04,NNE,29,0.0,0.0,82,0.02,,---,0.04,VWS V14.00,2013-05-12 07:06:00,
2013-05-12 02:11:00,68.0,62.3,30.04,NNE,32,0.0,0.0,82,0.02,,---,0.04,VWS V14.00,2013-05-12 07:11:00,
2013-05-12 02:16:00,67.9,62.5,30.03,NE,34,4.0,4.0,83,0.03,,---,0.05,VWS V14.00,2013-05-12 07:16:00,
2013-05-12 02:21:00,67.9,62.9,30.03,NNE,32,3.0,4.0,84,0.03,,---,0.05,VWS V14.00,2013-05-12 07:21:00,
2013-05-12 02:26:00,67.9,63.2,30.02,NE,34,3.0,4.0,85,0.03,,---,0.05,VWS V14.00,2013-05-12 07:26:00,
2013-05-12 02:31:00,67.7,63.0,30.02,NNE,33,3.0,3.0,85,0.03,,---,0.05,VWS V14.00,2013-05-12 07:31:00,
2013-05-12 02:36:00,67.6,62.9,30.02,NNE,32,0.0,0.0,85,0.03,,---,0.05,VWS V14.00,2013-05-12 07:36:00,
2013-05-12 02:41:00,67.6,62.9,30.02,NNE,32,0.0,0.0,85,0.03,,---,0.05,VWS V14.00,2013-05-12 07:41:00,
2013-05-12 02:46:00,67.5,62.8,30.01,NNE,32,0.0,0.0,85,0.02,,---,0.05,VWS V14.00,2013-05-12 07:46:00,
2013-05-12 02:51:00,67.4,63.1,30.01,NNE,32,0.0,0.0,86,0.02,,---,0.05,VWS V14.00,2013-05-12 07:51:00,
2013-05-12 02:56:00,67.3,63.0,30.01,NNE,31,0.0,0.0,86,0.02,,---,0.05,VWS V14.00,2013-05-12 07:56:00,
2013-05-12 03:01:00,67.2,62.9,30.01,NNE,31,0.0,0.0,86,0.02,,---,0.05,VWS V14.00,2013-05-12 08:01:00,
2013-05-12 03:06:00,67.0,62.7,30.00,NNE,31,0.0,0.0,86,0.01,,---,0.05,VWS V14.00,2013-05-12 08:06:00,
2013-05-12 03:11:00,66.9,62.6,30.00,NNE,31,0.0,0.0,86,0.01,,---,0.05,VWS V14.00,2013-05-12 08:11:00,
2013-05-12 03:16:00,67.2,63.2,29.99,NE,35,0.0,0.0,87,0.00,,---,0.05,VWS V14.00,2013-05-12 08:16:00,
2013-05-12 03:20:00,67.3,63.3,29.99,ENE,57,0.0,0.0,87,0.00,,---,0.05,VWS V14.00,2013-05-12 08:20:00,
2013-05-12 03:26:00,67.3,63.0,29.99,East,91,0.0,0.0,86,0.00,,---,0.05,VWS V14.00,2013-05-12 08:26:00,
2013-05-12 03:31:00,67.3,62.6,29.98,East,88,2.0,3.0,85,0.00,,---,0.05,VWS V14.00,2013-05-12 08:31:00,
2013-05-12 03:36:00,67.5,62.2,29.98,East,86,4.0,5.0,83,0.00,,---,0.05,VWS V14.00,2013-05-12 08:36:00,
2013-05-12 03:41:00,67.8,62.1,29.99,East,86,3.0,4.0,82,0.00,,---,0.05,VWS V14.00,2013-05-12 08:41:00,
2013-05-12 03:46:00,67.8,62.1,29.99,East,86,4.0,4.0,82,0.00,,---,0.05,VWS V14.00,2013-05-12 08:46:00,
2013-05-12 03:51:00,67.9,61.9,29.99,East,86,2.0,3.0,81,0.00,,---,0.05,VWS V14.00,2013-05-12 08:51:00,
2013-05-12 03:56:00,67.7,61.7,30.00,East,86,0.0,0.0,81,0.00,,---,0.05,VWS V14.00,2013-05-12 08:56:00,
2013-05-12 04:01:00,67.6,61.6,30.00,East,86,0.0,0.0,81,0.00,,---,0.05,VWS V14.00,2013-05-12 09:01:00,
2013-05-12 04:06:00,67.4,61.4,30.00,East,86,0.0,0.0,81,0.00,,---,0.05,VWS V14.00,2013-05-12 09:06:00,
2013-05-12 04:11:00,67.2,61.2,30.00,East,86,0.0,0.0,81,0.00,,---,0.05,VWS V14.00,2013-05-12 09:11:00,
2013-05-12 04:16:00,67.2,61.2,30.00,East,86,0.0,0.0,81,0.00,,---,0.05,VWS V14.00,2013-05-12 09:16:00,
2013-05-12 04:21:00,67.4,61.4,30.00,East,86,0.0,0.0,81,0.00,,---,0.05,VWS V14.00,2013-05-12 09:21:00,
2013-05-12 04:26:00,67.7,62.0,30.00,East,86,0.0,0.0,82,0.00,,---,0.05,VWS V14.00,2013-05-12 09:26:00,
2013-05-12 04:30:00,68.1,62.8,30.00,East,86,0.0,0.0,83,0.00,,---,0.05,VWS V14.00,2013-05-12 09:30:00,
2013-05-12 04:35:00,68.1,62.8,30.00,East,86,0.0,0.0,83,0.00,,---,0.05,VWS V14.00,2013-05-12 09:35:00,
2013-05-12 04:40:00,67.9,62.5,30.00,East,86,0.0,0.0,83,0.01,,---,0.06,VWS V14.00,2013-05-12 09:40:00,
2013-05-12 04:45:00,67.7,62.7,29.99,East,86,0.0,0.0,84,0.02,,---,0.07,VWS V14.00,2013-05-12 09:45:00,
2013-05-12 04:50:00,67.7,62.7,29.99,East,86,0.0,0.0,84,0.02,,---,0.07,VWS V14.00,2013-05-12 09:50:00,
2013-05-12 04:55:00,67.5,62.5,30.00,East,86,0.0,0.0,84,0.02,,---,0.07,VWS V14.00,2013-05-12 09:55:00,
2013-05-12 05:00:00,67.4,62.7,29.99,NNE,16,0.0,0.0,85,0.02,,---,0.07,VWS V14.00,2013-05-12 10:00:00,
2013-05-12 05:05:00,67.5,63.2,30.00,North,355,0.0,0.0,86,0.02,,---,0.07,VWS V14.00,2013-05-12 10:05:00,
2013-05-12 05:10:00,67.3,63.0,30.00,North,355,0.0,0.0,86,0.02,,---,0.07,VWS V14.00,2013-05-12 10:10:00,
2013-05-12 05:15:00,66.8,62.5,30.00,North,355,0.0,0.0,86,0.02,,---,0.07,VWS V14.00,2013-05-12 10:15:00,
2013-05-12 05:20:00,66.6,62.6,30.00,North,355,0.0,0.0,87,0.02,,---,0.07,VWS V14.00,2013-05-12 10:20:00,
2013-05-12 05:25:00,66.6,62.6,30.00,North,355,0.0,0.0,87,0.02,,---,0.07,VWS V14.00,2013-05-12 10:25:00,
2013-05-12 05:30:00,66.5,62.5,30.00,North,355,0.0,0.0,87,0.02,,---,0.07,VWS V14.00,2013-05-12 10:30:00,
2013-05-12 05:35:00,66.4,62.4,30.00,NNW,337,0.0,0.0,87,0.02,,---,0.07,VWS V14.00,2013-05-12 10:35:00,
2013-05-12 05:40:00,66.5,62.8,30.00,North,360,0.0,0.0,88,0.01,,---,0.07,VWS V14.00,2013-05-12 10:40:00,
2013-05-12 05:45:00,66.5,62.8,30.01,NNW,346,0.0,0.0,88,0.00,,---,0.07,VWS V14.00,2013-05-12 10:45:00,
2013-05-12 05:50:00,66.4,62.7,30.01,NNW,329,0.0,0.0,88,0.00,,---,0.07,VWS V14.00,2013-05-12 10:50:00,
2013-05-12 05:55:00,66.2,62.5,30.01,NW,319,0.0,0.0,88,0.00,,---,0.07,VWS V14.00,2013-05-12 10:55:00,
2013-05-12 06:00:00,66.0,62.3,30.01,NNW,329,0.0,0.0,88,0.00,,---,0.07,VWS V14.00,2013-05-12 11:00:00,
2013-05-12 06:05:00,66.0,62.3,30.01,NNW,336,0.0,0.0,88,0.00,,---,0.07,VWS V14.00,2013-05-12 11:05:00,
2013-05-12 06:10:00,66.0,62.3,30.01,NNW,338,0.0,0.0,88,0.00,,---,0.07,VWS V14.00,2013-05-12 11:10:00,
2013-05-12 06:15:00,65.9,62.2,30.02,NNW,344,0.0,0.0,88,0.00,,---,0.07,VWS V14.00,2013-05-12 11:15:00,
2013-05-12 06:20:00,65.8,62.2,30.02,North,5,0.0,0.0,88,0.00,,---,0.07,VWS V14.00,2013-05-12 11:20:00,
2013-05-12 06:25:00,65.7,62.0,30.02,NW,323,0.0,0.0,88,0.00,,---,0.07,VWS V14.00,2013-05-12 11:25:00,
2013-05-12 06:30:00,65.4,61.8,30.01,NNW,340,0.0,0.0,88,0.00,,---,0.07,VWS V14.00,2013-05-12 11:30:00,
2013-05-12 06:35:00,65.3,61.3,30.01,NNE,15,0.0,0.0,87,0.00,,---,0.07,VWS V14.00,2013-05-12 11:35:00,
2013-05-12 06:40:00,65.3,61.3,30.01,NNE,30,0.0,0.0,87,0.00,,---,0.07,VWS V14.00,2013-05-12 11:40:00,
2013-05-12 06:45:00,65.3,61.3,30.02,NNE,17,1.0,3.0,87,0.00,,---,0.07,VWS V14.00,2013-05-12 11:45:00,
2013-05-12 06:50:00,65.3,61.0,30.02,NNE,26,7.0,8.0,86,0.00,,---,0.07,VWS V14.00,2013-05-12 11:50:00,
2013-05-12 06:55:00,65.7,61.1,30.03,NNE,25,8.0,10.0,85,0.00,,---,0.07,VWS V14.00,2013-05-12 11:55:00,
2013-05-12 07:00:00,66.0,61.0,30.03,NNE,26,8.0,9.0,84,0.00,,---,0.07,VWS V14.00,2013-05-12 12:00:00,
2013-05-12 07:05:00,66.3,61.3,30.03,NNE,27,6.0,7.0,84,0.00,,---,0.07,VWS V14.00,2013-05-12 12:05:00,
2013-05-12 07:10:00,66.3,61.0,30.04,NNE,19,0.0,0.0,83,0.00,,---,0.07,VWS V14.00,2013-05-12 12:10:00,
2013-05-12 07:15:00,66.3,61.0,30.04,NNE,28,0.0,0.0,83,0.00,,---,0.07,VWS V14.00,2013-05-12 12:15:00,
2013-05-12 07:20:00,66.2,61.2,30.04,NNE,17,0.0,0.0,84,0.00,,---,0.07,VWS V14.00,2013-05-12 12:20:00,
2013-05-12 07:25:00,66.2,61.2,30.03,NE,34,6.0,7.0,84,0.00,,---,0.07,VWS V14.00,2013-05-12 12:25:00,
2013-05-12 07:30:00,66.3,61.3,30.03,NE,39,4.0,5.0,84,0.00,,---,0.07,VWS V14.00,2013-05-12 12:30:00,
2013-05-12 07:35:00,66.5,61.5,30.04,NE,36,3.0,4.0,84,0.00,,---,0.07,VWS V14.00,2013-05-12 12:35:00,
2013-05-12 07:40:00,66.7,61.7,30.04,NE,35,3.0,3.0,84,0.00,,---,0.07,VWS V14.00,2013-05-12 12:40:00,
2013-05-12 07:45:00,66.9,61.9,30.04,NNE,30,3.0,3.0,84,0.00,,---,0.07,VWS V14.00,2013-05-12 12:45:00,
2013-05-12 07:50:00,67.0,62.0,30.05,NNE,30,0.0,0.0,84,0.00,,---,0.07,VWS V14.00,2013-05-12 12:50:00,
2013-05-12 07:55:00,67.1,61.8,30.05,NNE,30,0.0,0.0,83,0.00,,---,0.07,VWS V14.00,2013-05-12 12:55:00,
2013-05-12 08:00:00,67.1,61.8,30.05,NNE,30,0.0,0.0,83,0.00,,---,0.07,VWS V14.00,2013-05-12 13:00:00,
2013-05-12 08:05:00,67.1,62.1,30.04,NNE,30,0.0,0.0,84,0.00,,---,0.07,VWS V14.00,2013-05-12 13:05:00,
2013-05-12 08:10:00,67.2,61.9,30.05,NNE,28,3.0,4.0,83,0.00,,---,0.07,VWS V14.00,2013-05-12 13:10:00,
2013-05-12 08:15:00,67.4,62.1,30.05,NNE,27,0.0,0.0,83,0.00,,---,0.07,VWS V14.00,2013-05-12 13:15:00,
2013-05-12 08:20:00,67.5,62.2,30.05,NNE,26,0.0,0.0,83,0.00,,---,0.07,VWS V14.00,2013-05-12 13:20:00,
2013-05-12 08:25:00,67.4,62.1,30.06,NNE,15,0.0,0.0,83,0.00,,---,0.07,VWS V14.00,2013-05-12 13:25:00,
2013-05-12 08:30:00,67.6,62.3,30.06,NNW,341,0.0,0.0,83,0.00,,---,0.07,VWS V14.00,2013-05-12 13:30:00,
2013-05-12 08:35:00,67.7,62.4,30.07,North,350,4.0,6.0,83,0.00,,---,0.07,VWS V14.00,2013-05-12 13:35:00,
2013-05-12 08:40:00,67.7,62.7,30.07,NNW,327,2.0,2.0,84,0.00,,---,0.07,VWS V14.00,2013-05-12 13:40:00,
2013-05-12 08:45:00,67.7,62.7,30.07,NNW,337,0.0,0.0,84,0.00,,---,0.07,VWS V14.00,2013-05-12 13:45:00,
2013-05-12 08:50:00,67.6,62.6,30.07,North,360,0.0,0.0,84,0.00,,---,0.07,VWS V14.00,2013-05-12 13:50:00,
2013-05-12 08:55:00,67.6,62.6,30.07,NNW,340,0.0,0.0,84,0.00,,---,0.07,VWS V14.00,2013-05-12 13:55:00,
2013-05-12 09:00:00,67.5,62.5,30.08,NNW,344,0.0,0.0,84,0.06,,---,0.13,VWS V14.00,2013-05-12 14:00:00,
2013-05-12 09:05:00,67.1,62.1,30.08,NW,326,2.0,2.0,84,0.26,,---,0.33,VWS V14.00,2013-05-12 14:05:00,
2013-05-12 09:10:00,66.4,61.8,30.09,NNW,329,3.0,4.0,85,0.47,,---,0.54,VWS V14.00,2013-05-12 14:10:00,
2013-05-12 09:15:00,65.8,61.5,30.09,NW,326,0.0,0.0,86,0.62,,---,0.69,VWS V14.00,2013-05-12 14:15:00,
2013-05-12 09:20:00,65.6,61.6,30.09,West,275,0.0,0.0,87,0.70,,---,0.77,VWS V14.00,2013-05-12 14:20:00,
2013-05-12 09:25:00,65.5,61.9,30.10,West,268,7.0,7.0,88,0.72,,---,0.79,VWS V14.00,2013-05-12 14:25:00,
2013-05-12 09:30:00,65.5,62.2,30.10,West,269,6.0,7.0,89,0.73,,---,0.80,VWS V14.00,2013-05-12 14:30:00,
2013-05-12 09:35:00,65.6,62.3,30.10,West,265,6.0,6.0,89,0.74,,---,0.81,VWS V14.00,2013-05-12 14:35:00,
2013-05-12 09:40:00,65.6,62.6,30.10,West,272,5.0,6.0,90,0.74,,---,0.81,VWS V14.00,2013-05-12 14:40:00,
2013-05-12 09:45:00,65.6,62.6,30.10,West,267,5.0,5.0,90,0.75,,---,0.82,VWS V14.00,2013-05-12 14:45:00,
2013-05-12 09:50:00,65.7,62.7,30.10,West,271,0.0,0.0,90,0.75,,---,0.82,VWS V14.00,2013-05-12 14:50:00,
2013-05-12 09:55:00,65.7,63.0,30.10,West,271,0.0,0.0,91,0.76,,---,0.83,VWS V14.00,2013-05-12 14:55:00,
2013-05-12 10:00:00,65.7,63.0,30.10,West,272,0.0,0.0,91,0.72,,---,0.83,VWS V14.00,2013-05-12 15:00:00,
2013-05-12 10:05:00,65.6,62.9,30.10,West,272,0.0,0.0,91,0.53,,---,0.84,VWS V14.00,2013-05-12 15:05:00,
2013-05-12 10:10:00,65.6,62.9,30.10,West,277,3.0,5.0,91,0.31,,---,0.85,VWS V14.00,2013-05-12 15:10:00,
2013-05-12 10:15:00,65.5,62.8,30.10,WNW,290,5.0,5.0,91,0.17,,---,0.86,VWS V14.00,2013-05-12 15:15:00,
2013-05-12 10:20:00,65.4,62.7,30.10,WNW,290,0.0,0.0,91,0.11,,---,0.87,VWS V14.00,2013-05-12 15:20:00,
2013-05-12 10:25:00,65.2,62.8,30.11,WNW,287,5.0,6.0,92,0.08,,---,0.87,VWS V14.00,2013-05-12 15:25:00,
2013-05-12 10:30:00,65.2,62.8,30.11,WNW,282,0.0,4.0,92,0.07,,---,0.87,VWS V14.00,2013-05-12 15:30:00,
2013-05-12 10:35:00,64.9,62.5,30.11,WNW,285,6.0,7.0,92,0.07,,---,0.88,VWS V14.00,2013-05-12 15:35:00,
2013-05-12 10:40:00,64.7,62.3,30.11,WNW,285,5.0,7.0,92,0.07,,---,0.88,VWS V14.00,2013-05-12 15:40:00,
2013-05-12 10:45:00,65.0,62.9,30.11,ENE,67,0.0,0.0,93,0.06,,---,0.88,VWS V14.00,2013-05-12 15:45:00,
2013-05-12 10:50:00,65.6,63.5,30.11,NNW,340,7.0,7.0,93,0.06,,---,0.88,VWS V14.00,2013-05-12 15:50:00,
2013-05-12 10:55:00,65.4,63.0,30.11,NNW,333,1.0,1.0,92,0.06,,---,0.89,VWS V14.00,2013-05-12 15:55:00,
2013-05-12 11:00:00,65.2,63.1,30.11,North,350,1.0,3.0,93,0.06,,---,0.89,VWS V14.00,2013-05-12 16:00:00,
2013-05-12 11:05:00,65.4,63.3,30.11,WNW,290,0.0,0.0,93,0.05,,---,0.89,VWS V14.00,2013-05-12 16:05:00,
2013-05-12 11:10:00,65.6,63.5,30.11,North,350,0.0,0.0,93,0.05,,---,0.90,VWS V14.00,2013-05-12 16:10:00,
2013-05-12 11:15:00,65.6,63.5,30.10,NW,306,0.0,0.0,93,0.12,,---,0.98,VWS V14.00,2013-05-12 16:15:00,
2013-05-12 11:20:00,65.2,63.1,30.10,NNW,327,0.0,0.0,93,0.19,,---,1.06,VWS V14.00,2013-05-12 16:20:00,
2013-05-12 11:25:00,64.9,62.8,30.10,NNE,25,5.0,7.0,93,0.22,,---,1.09,VWS V14.00,2013-05-12 16:25:00,
2013-05-12 11:30:00,64.9,62.8,30.10,NNE,24,5.0,5.0,93,0.24,,---,1.11,VWS V14.00,2013-05-12 16:30:00,
2013-05-12 11:35:00,65.0,62.9,30.10,NNE,26,2.0,2.0,93,0.24,,---,1.12,VWS V14.00,2013-05-12 16:35:00,
2013-05-12 11:40:00,65.1,63.0,30.09,NNE,20,0.0,0.0,93,0.25,,---,1.13,VWS V14.00,2013-05-12 16:40:00,
2013-05-12 11:45:00,65.1,63.3,30.09,NNE,18,0.0,0.0,94,0.25,,---,1.13,VWS V14.00,2013-05-12 16:45:00,
2013-05-12 11:50:00,65.2,63.4,30.09,NNE,18,0.0,0.0,94,0.26,,---,1.14,VWS V14.00,2013-05-12 16:50:00,
2013-05-12 11:55:00,65.4,63.6,30.09,NNE,18,0.0,0.0,94,0.25,,---,1.14,VWS V14.00,2013-05-12 16:55:00,
2013-05-12 12:00:00,65.7,63.9,30.08,NNE,15,3.0,4.0,94,0.25,,---,1.14,VWS V14.00,2013-05-12 17:00:00,
2013-05-12 12:05:00,66.0,64.2,30.08,NE,42,8.0,9.0,94,0.26,,---,1.15,VWS V14.00,2013-05-12 17:05:00,
2013-05-12 12:10:00,66.2,64.4,30.08,NE,38,8.0,9.0,94,0.25,,---,1.15,VWS V14.00,2013-05-12 17:10:00,
2013-05-12 12:15:00,66.4,64.6,30.07,NE,43,7.0,8.0,94,0.17,,---,1.15,VWS V14.00,2013-05-12 17:15:00,
2013-05-12 12:20:00,66.6,64.8,30.07,NE,49,12.0,12.0,94,0.09,,---,1.15,VWS V14.00,2013-05-12 17:20:00,
2013-05-12 12:25:00,66.9,65.1,30.07,NE,42,8.0,9.0,94,0.06,,---,1.15,VWS V14.00,2013-05-12 17:25:00,
2013-05-12 12:30:00,67.1,65.3,30.07,NE,39,8.0,8.0,94,0.04,,---,1.15,VWS V14.00,2013-05-12 17:30:00,
2013-05-12 12:35:00,67.2,65.4,30.07,ENE,67,11.0,11.0,94,0.03,,---,1.15,VWS V14.00,2013-05-12 17:35:00,
2013-05-12 12:40:00,67.6,65.8,30.07,NE,49,11.0,12.0,94,0.02,,---,1.15,VWS V14.00,2013-05-12 17:40:00,
2013-05-12 12:45:00,68.1,66.0,30.07,ENE,60,11.0,12.0,93,0.02,,---,1.15,VWS V14.00,2013-05-12 17:45:00,
2013-05-12 12:50:00,68.7,66.6,30.07,ENE,62,12.0,13.0,93,0.01,,---,1.15,VWS V14.00,2013-05-12 17:50:00,
2013-05-12 12:55:00,69.2,66.8,30.06,ENE,71,12.0,12.0,92,0.01,,---,1.15,VWS V14.00,2013-05-12 17:55:00,
2013-05-12 13:00:00,69.5,66.8,30.06,East,79,11.0,12.0,91,0.01,,---,1.15,VWS V14.00,2013-05-12 18:00:00,
2013-05-12 13:05:00,69.7,67.0,30.06,ENE,73,13.0,13.0,91,0.00,,---,1.15,VWS V14.00,2013-05-12 18:05:00,
2013-05-12 13:10:00,70.3,67.6,30.06,East,80,10.0,11.0,91,0.00,,---,1.15,VWS V14.00,2013-05-12 18:10:00,
2013-05-12 13:15:00,70.8,68.1,30.06,East,79,10.0,11.0,91,0.00,,---,1.15,VWS V14.00,2013-05-12 18:15:00,
2013-05-12 13:20:00,71.0,68.2,30.07,ENE,77,10.0,10.0,91,0.00,,---,1.15,VWS V14.00,2013-05-12 18:20:00,
2013-05-12 13:25:00,71.0,67.9,30.06,ENE,63,8.0,10.0,90,0.00,,---,1.15,VWS V14.00,2013-05-12 18:25:00,
2013-05-12 13:30:00,71.6,68.5,30.06,ENE,66,8.0,10.0,90,0.00,,---,1.15,VWS V14.00,2013-05-12 18:30:00,
2013-05-12 13:35:00,72.0,68.6,30.06,ENE,69,10.0,10.0,89,0.00,,---,1.15,VWS V14.00,2013-05-12 18:35:00,
2013-05-12 13:40:00,72.1,69.0,30.07,NE,41,6.0,7.0,90,0.00,,---,1.15,VWS V14.00,2013-05-12 18:40:00,
2013-05-12 13:45:00,72.7,69.3,30.07,ENE,68,10.0,10.0,89,0.00,,---,1.15,VWS V14.00,2013-05-12 18:45:00,
2013-05-12 13:50:00,72.9,69.5,30.07,NE,34,7.0,10.0,89,0.00,,---,1.15,VWS V14.00,2013-05-12 18:50:00,
2013-05-12 13:55:00,73.1,69.3,30.07,ENE,61,8.0,10.0,88,0.00,,---,1.15,VWS V14.00,2013-05-12 18:55:00,
2013-05-12 14:00:00,73.6,70.2,30.08,NE,43,9.0,9.0,89,0.00,,---,1.15,VWS V14.00,2013-05-12 19:00:00,
2013-05-12 14:05:00,74.1,70.3,30.08,NE,50,6.0,8.0,88,0.00,,---,1.15,VWS V14.00,2013-05-12 19:05:00,
2013-05-12 14:10:00,74.5,70.7,30.08,NE,46,8.0,12.0,88,0.00,,---,1.15,VWS V14.00,2013-05-12 19:10:00,
2013-05-12 14:15:00,74.4,70.3,30.07,ENE,60,3.0,6.0,87,0.00,,---,1.15,VWS V14.00,2013-05-12 19:15:00,
2013-05-12 14:20:00,74.6,70.5,30.07,ENE,58,6.0,7.0,87,0.00,,---,1.15,VWS V14.00,2013-05-12 19:20:00,
2013-05-12 14:25:00,75.5,71.7,30.07,ENE,60,5.0,10.0,88,0.00,,---,1.15,VWS V14.00,2013-05-12 19:25:00,
2013-05-12 14:30:00,75.3,71.2,30.06,ENE,59,6.0,8.0,87,0.00,,---,1.15,VWS V14.00,2013-05-12 19:30:00,
2013-05-12 14:35:00,75.5,71.4,30.06,NE,37,4.0,7.0,87,0.00,,---,1.15,VWS V14.00,2013-05-12 19:35:00,
2013-05-12 14:40:00,76.3,71.8,30.06,East,79,5.0,7.0,86,0.00,,---,1.15,VWS V14.00,2013-05-12 19:40:00,
2013-05-12 14:45:00,76.2,71.7,30.06,NE,51,11.0,13.0,86,0.00,,---,1.15,VWS V14.00,2013-05-12 19:45:00,
2013-05-12 14:50:00,76.7,71.5,30.06,East,98,9.0,13.0,84,0.00,,---,1.15,VWS V14.00,2013-05-12 19:50:00,
2013-05-12 14:55:00,76.6,70.7,30.06,ENE,67,12.0,15.0,82,0.00,,---,1.15,VWS V14.00,2013-05-12 19:55:00,
2013-05-12 15:00:00,76.7,70.8,30.06,ESE,107,9.0,13.0,82,0.00,,---,1.15,VWS V14.00,2013-05-12 20:00:00,
2013-05-12 15:05:00,76.6,70.3,30.06,East,87,12.0,12.0,81,0.00,,---,1.15,VWS V14.00,2013-05-12 20:05:00,
2013-05-12 15:10:00,76.3,69.7,30.06,ENE,65,11.0,13.0,80,0.00,,---,1.15,VWS V14.00,2013-05-12 20:10:00,
2013-05-12 15:15:00,76.1,69.8,30.06,ENE,78,5.0,7.0,81,0.00,,---,1.15,VWS V14.00,2013-05-12 20:15:00,
2013-05-12 15:20:00,75.8,69.2,30.06,East,90,11.0,11.0,80,0.00,,---,1.15,VWS V14.00,2013-05-12 20:20:00,
2013-05-12 15:25:00,75.8,69.2,30.06,ENE,57,6.0,7.0,80,0.00,,---,1.15,VWS V14.00,2013-05-12 20:25:00,
2013-05-12 15:30:00,76.0,69.8,30.06,NNW,342,3.0,7.0,81,0.00,,---,1.15,VWS V14.00,2013-05-12 20:30:00,
2013-05-12 15:35:00,75.4,69.2,30.06,NE,39,0.0,4.0,81,0.00,,---,1.15,VWS V14.00,2013-05-12 20:35:00,
2013-05-12 15:40:00,74.2,68.4,30.07,NNE,33,0.0,0.0,82,0.00,,---,1.15,VWS V14.00,2013-05-12 20:40:00,
2013-05-12 15:45:00,73.4,67.9,30.07,NNE,25,0.0,3.0,83,0.01,,---,1.16,VWS V14.00,2013-05-12 20:45:00,
2013-05-12 15:50:00,72.8,67.7,30.06,NNE,12,3.0,5.0,84,0.02,,---,1.17,VWS V14.00,2013-05-12 20:50:00,
2013-05-12 15:55:00,72.2,67.4,30.07,NE,36,8.0,14.0,85,0.03,,---,1.18,VWS V14.00,2013-05-12 20:55:00,
2013-05-12 16:00:00,71.3,66.9,30.06,North,360,0.0,9.0,86,0.06,,---,1.21,VWS V14.00,2013-05-12 21:00:00,
2013-05-12 16:05:00,70.7,66.7,30.05,NE,38,8.0,12.0,87,0.14,,---,1.29,VWS V14.00,2013-05-12 21:05:00,
2013-05-12 16:10:00,70.3,66.6,30.05,NNE,26,13.0,16.0,88,0.22,,---,1.37,VWS V14.00,2013-05-12 21:10:00,
2013-05-12 16:15:00,70.0,66.6,30.06,NE,47,7.0,10.0,89,0.29,,---,1.44,VWS V14.00,2013-05-12 21:15:00,
2013-05-12 16:20:00,69.9,66.5,30.06,East,84,7.0,8.0,89,0.31,,---,1.46,VWS V14.00,2013-05-12 21:20:00,
2013-05-12 16:25:00,69.9,66.8,30.05,ESE,105,7.0,9.0,90,0.32,,---,1.47,VWS V14.00,2013-05-12 21:25:00,
2013-05-12 16:30:00,70.2,66.8,30.05,East,84,4.0,5.0,89,0.32,,---,1.47,VWS V14.00,2013-05-12 21:30:00,
2013-05-12 16:35:00,70.4,67.3,30.05,ENE,78,0.0,0.0,90,0.32,,---,1.47,VWS V14.00,2013-05-12 21:35:00,
2013-05-12 16:40:00,70.6,67.5,30.05,East,83,0.0,0.0,90,0.32,,---,1.47,VWS V14.00,2013-05-12 21:40:00,
2013-05-12 16:45:00,70.9,67.8,30.05,East,83,0.0,0.0,90,0.32,,---,1.47,VWS V14.00,2013-05-12 21:45:00,
2013-05-12 16:50:00,71.2,68.1,30.05,NE,56,10.0,11.0,90,0.31,,---,1.47,VWS V14.00,2013-05-12 21:50:00,
2013-05-12 16:55:00,71.7,68.3,30.05,ESE,107,11.0,12.0,89,0.30,,---,1.47,VWS V14.00,2013-05-12 21:55:00,
2013-05-12 17:00:00,71.9,67.8,30.04,East,101,9.0,12.0,87,0.27,,---,1.47,VWS V14.00,2013-05-12 22:00:00,
2013-05-12 17:05:00,72.0,67.2,30.03,ESE,109,7.0,8.0,85,0.20,,---,1.47,VWS V14.00,2013-05-12 22:05:00,
2013-05-12 17:10:00,72.1,67.3,30.03,ESE,116,5.0,7.0,85,0.11,,---,1.47,VWS V14.00,2013-05-12 22:10:00,
2013-05-12 17:15:00,72.3,67.5,30.03,ESE,111,5.0,7.0,85,0.04,,---,1.47,VWS V14.00,2013-05-12 22:15:00,
2013-05-12 17:20:00,72.4,67.6,30.03,East,101,6.0,6.0,85,0.01,,---,1.47,VWS V14.00,2013-05-12 22:20:00,
2013-05-12 17:25:00,72.9,68.1,30.04,East,92,7.0,8.0,85,0.00,,---,1.47,VWS V14.00,2013-05-12 22:25:00,
2013-05-12 17:30:00,73.0,68.2,30.04,East,85,7.0,12.0,85,0.00,,---,1.47,VWS V14.00,2013-05-12 22:30:00,
2013-05-12 17:35:00,73.2,68.4,30.04,East,82,10.0,12.0,85,0.00,,---,1.47,VWS V14.00,2013-05-12 22:35:00,
2013-05-12 17:40:00,73.4,69.0,30.04,East,94,8.0,9.0,86,0.00,,---,1.47,VWS V14.00,2013-05-12 22:40:00,
2013-05-12 17:45:00,73.2,68.4,30.04,ESE,111,7.0,11.0,85,0.00,,---,1.47,VWS V14.00,2013-05-12 22:45:00,
2013-05-12 17:50:00,73.3,68.9,30.04,SE,126,7.0,9.0,86,0.00,,---,1.47,VWS V14.00,2013-05-12 22:50:00,
2013-05-12 17:55:00,73.1,68.7,30.04,ESE,115,7.0,11.0,86,0.00,,---,1.47,VWS V14.00,2013-05-12 22:55:00,
2013-05-12 18:00:00,73.0,68.6,30.04,ESE,113,9.0,9.0,86,0.00,,---,1.47,VWS V14.00,2013-05-12 23:00:00,
2013-05-12 18:05:00,72.7,68.3,30.04,ESE,117,7.0,11.0,86,0.00,,---,1.47,VWS V14.00,2013-05-12 23:05:00,
2013-05-12 18:10:00,72.7,68.3,30.04,SE,127,8.0,11.0,86,0.00,,---,1.47,VWS V14.00,2013-05-12 23:10:00,
2013-05-12 18:15:00,72.7,68.6,30.04,SE,126,11.0,11.0,87,0.00,,---,1.47,VWS V14.00,2013-05-12 23:15:00,
2013-05-12 18:20:00,72.6,68.2,30.03,ESE,112,9.0,9.0,86,0.00,,---,1.47,VWS V14.00,2013-05-12 23:20:00,
2013-05-12 18:25:00,72.7,68.3,30.03,ESE,121,9.0,11.0,86,0.00,,---,1.47,VWS V14.00,2013-05-12 23:25:00,
2013-05-12 18:30:00,72.7,68.3,30.03,ESE,109,9.0,9.0,86,0.00,,---,1.47,VWS V14.00,2013-05-12 23:30:00,
2013-05-12 18:35:00,72.9,68.5,30.02,East,101,9.0,9.0,86,0.00,,---,1.47,VWS V14.00,2013-05-12 23:35:00,
2013-05-12 18:40:00,73.0,68.6,30.02,ESE,103,8.0,9.0,86,0.00,,---,1.47,VWS V14.00,2013-05-12 23:40:00,
2013-05-12 18:45:00,72.9,68.5,30.02,ESE,110,7.0,8.0,86,0.00,,---,1.47,VWS V14.00,2013-05-12 23:45:00,
2013-05-12 18:50:00,73.0,68.2,30.02,East,92,9.0,9.0,85,0.00,,---,1.47,VWS V14.00,2013-05-12 23:50:00,
2013-05-12 18:55:00,73.0,68.2,30.02,ESE,105,7.0,9.0,85,0.00,,---,1.47,VWS V14.00,2013-05-12 23:55:00,
2013-05-12 19:00:00,73.0,67.9,30.03,ESE,113,8.0,11.0,84,0.00,,---,1.47,VWS V14.00,2013-05-13 00:00:00,
2013-05-12 19:05:00,73.0,68.2,30.03,ESE,119,9.0,9.0,85,0.00,,---,1.47,VWS V14.00,2013-05-13 00:05:00,
2013-05-12 19:10:00,72.9,68.1,30.03,ESE,114,7.0,8.0,85,0.00,,---,1.47,VWS V14.00,2013-05-13 00:10:00,
2013-05-12 19:15:00,72.8,68.0,30.04,ESE,120,7.0,7.0,85,0.00,,---,1.47,VWS V14.00,2013-05-13 00:15:00,
2013-05-12 19:20:00,72.7,67.9,30.03,ESE,109,7.0,7.0,85,0.00,,---,1.47,VWS V14.00,2013-05-13 00:20:00,
2013-05-12 19:25:00,72.7,67.9,30.03,ESE,113,6.0,8.0,85,0.00,,---,1.47,VWS V14.00,2013-05-13 00:25:00,
2013-05-12 19:30:00,72.7,68.3,30.03,ESE,121,5.0,7.0,86,0.00,,---,1.47,VWS V14.00,2013-05-13 00:30:00,
2013-05-12 19:35:00,72.5,68.1,30.03,ESE,113,6.0,8.0,86,0.00,,---,1.47,VWS V14.00,2013-05-13 00:35:00,
2013-05-12 19:40:00,72.5,68.4,30.04,ESE,115,7.0,7.0,87,0.00,,---,1.47,VWS V14.00,2013-05-13 00:40:00,
2013-05-12 19:45:00,72.4,68.3,30.04,ESE,120,4.0,5.0,87,0.00,,---,1.47,VWS V14.00,2013-05-13 00:45:00,
2013-05-12 19:50:00,72.3,68.2,30.04,ESE,117,6.0,6.0,87,0.00,,---,1.47,VWS V14.00,2013-05-13 00:50:00,
2013-05-12 19:55:00,72.3,68.2,30.04,ESE,118,0.0,0.0,87,0.00,,---,1.47,VWS V14.00,2013-05-13 00:55:00,
2013-05-12 20:00:00,72.2,68.1,30.04,ESE,118,0.0,0.0,87,0.00,,---,1.47,VWS V14.00,2013-05-13 01:00:00,
2013-05-12 20:05:00,72.0,67.9,30.05,ESE,114,0.0,0.0,87,0.00,,---,1.47,VWS V14.00,2013-05-13 01:05:00,
2013-05-12 20:10:00,71.8,67.7,30.05,ESE,114,0.0,0.0,87,0.00,,---,1.47,VWS V14.00,2013-05-13 01:10:00,
2013-05-12 20:15:00,71.7,67.6,30.05,ESE,119,0.0,0.0,87,0.00,,---,1.47,VWS V14.00,2013-05-13 01:15:00,
2013-05-12 20:20:00,71.7,68.0,30.05,ESE,119,0.0,0.0,88,0.00,,---,1.47,VWS V14.00,2013-05-13 01:20:00,
2013-05-12 20:25:00,71.7,68.0,30.05,ESE,119,0.0,0.0,88,0.00,,---,1.47,VWS V14.00,2013-05-13 01:25:00,
2013-05-12 20:30:00,71.5,67.8,30.06,ESE,119,0.0,0.0,88,0.00,,---,1.47,VWS V14.00,2013-05-13 01:30:00,
2013-05-12 20:35:00,71.3,67.6,30.06,ESE,119,0.0,0.0,88,0.00,,---,1.47,VWS V14.00,2013-05-13 01:35:00,
2013-05-12 20:40:00,71.2,67.5,30.06,ESE,118,0.0,0.0,88,0.00,,---,1.47,VWS V14.00,2013-05-13 01:40:00,
2013-05-12 20:45:00,71.2,67.5,30.06,ESE,118,0.0,0.0,88,0.00,,---,1.47,VWS V14.00,2013-05-13 01:45:00,
2013-05-12 20:50:00,71.0,67.3,30.06,ESE,118,0.0,0.0,88,0.00,,---,1.47,VWS V14.00,2013-05-13 01:50:00,
2013-05-12 20:55:00,71.0,67.3,30.06,ESE,118,0.0,0.0,88,0.00,,---,1.47,VWS V14.00,2013-05-13 01:55:00,
2013-05-12 21:00:00,70.8,66.7,30.06,ESE,118,0.0,0.0,87,0.00,,---,1.47,VWS V14.00,2013-05-13 02:00:00,
2013-05-12 21:05:00,70.7,67.0,30.06,ESE,118,0.0,0.0,88,0.00,,---,1.47,VWS V14.00,2013-05-13 02:05:00,
2013-05-12 21:10:00,70.6,66.9,30.06,ESE,118,0.0,0.0,88,0.00,,---,1.47,VWS V14.00,2013-05-13 02:10:00,
2013-05-12 21:15:00,70.4,66.7,30.07,ESE,118,0.0,0.0,88,0.00,,---,1.47,VWS V14.00,2013-05-13 02:15:00,
2013-05-12 21:20:00,70.4,66.7,30.07,ESE,118,0.0,0.0,88,0.00,,---,1.47,VWS V14.00,2013-05-13 02:20:00,
2013-05-12 21:25:00,70.3,66.6,30.07,ESE,118,0.0,0.0,88,0.00,,---,1.47,VWS V14.00,2013-05-13 02:25:00,
2013-05-12 21:30:00,69.9,66.2,30.08,East,79,3.0,5.0,88,0.00,,---,1.47,VWS V14.00,2013-05-13 02:30:00,
2013-05-12 21:35:00,69.9,66.2,30.08,East,94,4.0,5.0,88,0.01,,---,1.48,VWS V14.00,2013-05-13 02:35:00,
2013-05-12 21:40:00,69.9,65.9,30.08,East,98,0.0,0.0,87,0.01,,---,1.48,VWS V14.00,2013-05-13 02:40:00,
2013-05-12 21:45:00,70.1,65.7,30.08,East,100,0.0,0.0,86,0.01,,---,1.48,VWS V14.00,2013-05-13 02:45:00,
2013-05-12 21:50:00,70.1,65.7,30.09,East,101,0.0,0.0,86,0.01,,---,1.48,VWS V14.00,2013-05-13 02:50:00,
2013-05-12 21:55:00,69.9,65.2,30.09,East,100,0.0,0.0,85,0.01,,---,1.48,VWS V14.00,2013-05-13 02:55:00,
2013-05-12 22:00:00,69.8,65.1,30.09,East,96,0.0,0.0,85,0.01,,---,1.48,VWS V14.00,2013-05-13 03:00:00,
2013-05-12 22:05:00,69.7,65.0,30.09,East,96,0.0,0.0,85,0.01,,---,1.48,VWS V14.00,2013-05-13 03:05:00,
2013-05-12 22:10:00,69.6,64.9,30.09,East,96,0.0,0.0,85,0.01,,---,1.48,VWS V14.00,2013-05-13 03:10:00,
2013-05-12 22:15:00,69.4,64.7,30.09,East,96,0.0,0.0,85,0.01,,---,1.48,VWS V14.00,2013-05-13 03:15:00,
2013-05-12 22:20:00,69.2,64.5,30.10,East,96,0.0,0.0,85,0.01,,---,1.48,VWS V14.00,2013-05-13 03:20:00,
2013-05-12 22:25:00,68.9,64.6,30.10,East,96,0.0,0.0,86,0.01,,---,1.48,VWS V14.00,2013-05-13 03:25:00,
2013-05-12 22:30:00,68.7,64.3,30.10,East,96,0.0,0.0,86,0.01,,---,1.48,VWS V14.00,2013-05-13 03:30:00,
2013-05-12 22:35:00,68.6,64.6,30.10,East,96,0.0,0.0,87,0.00,,---,1.48,VWS V14.00,2013-05-13 03:35:00,
2013-05-12 22:40:00,68.5,64.2,30.10,East,96,0.0,0.0,86,0.00,,---,1.48,VWS V14.00,2013-05-13 03:40:00,
2013-05-12 22:45:00,68.3,64.3,30.11,East,96,0.0,0.0,87,0.00,,---,1.48,VWS V14.00,2013-05-13 03:45:00,
2013-05-12 22:50:00,68.3,64.3,30.11,East,96,0.0,0.0,87,0.00,,---,1.48,VWS V14.00,2013-05-13 03:50:00,
2013-05-12 22:55:00,68.2,64.2,30.11,East,96,0.0,0.0,87,0.00,,---,1.48,VWS V14.00,2013-05-13 03:55:00,
2013-05-12 23:00:00,68.0,64.0,30.11,East,96,0.0,0.0,87,0.00,,---,1.48,VWS V14.00,2013-05-13 04:00:00,
2013-05-12 23:01:00,68.0,64.3,30.11,East,96,0.0,0.0,88,0.00,,---,1.48,VWS V14.00,2013-05-13 04:01:00,
2013-05-12 23:06:00,67.9,64.2,30.11,East,96,0.0,0.0,88,0.00,,---,1.48,VWS V14.00,2013-05-13 04:06:00,
2013-05-12 23:11:00,67.9,64.2,30.11,East,96,0.0,0.0,88,0.00,,---,1.48,VWS V14.00,2013-05-13 04:11:00,
2013-05-12 23:16:00,67.8,64.1,30.11,East,96,0.0,0.0,88,0.00,,---,1.48,VWS V14.00,2013-05-13 04:16:00,
2013-05-12 23:21:00,67.7,64.0,30.11,East,98,0.0,0.0,88,0.00,,---,1.48,VWS V14.00,2013-05-13 04:21:00,
2013-05-12 23:26:00,67.5,64.2,30.11,East,98,0.0,0.0,89,0.00,,---,1.48,VWS V14.00,2013-05-13 04:26:00,
2013-05-12 23:31:00,67.5,64.2,30.11,East,96,0.0,0.0,89,0.00,,---,1.48,VWS V14.00,2013-05-13 04:31:00,
2013-05-12 23:36:00,67.4,64.1,30.11,East,96,0.0,0.0,89,0.00,,---,1.48,VWS V14.00,2013-05-13 04:36:00,
2013-05-12 23:41:00,67.4,64.1,30.11,East,96,0.0,0.0,89,0.00,,---,1.48,VWS V14.00,2013-05-13 04:41:00,
2013-05-12 23:46:00,67.3,64.0,30.11,East,96,0.0,0.0,89,0.00,,---,1.48,VWS V14.00,2013-05-13 04:46:00,
2013-05-12 23:51:00,67.2,63.8,30.11,East,96,0.0,0.0,89,0.00,,---,1.48,VWS V14.00,2013-05-13 04:51:00,
2013-05-12 23:56:00,67.1,63.8,30.11,East,96,0.0,0.0,89,0.00,,---,1.48,VWS V14.00,2013-05-13 04:56:00,